• MPC Preparation (Info)

  • MPEC 2016-G01 : 2016 FC13

    The following Minor Planet Electronic Circular may be linked-to from your own Web pages, but must not otherwise be redistributed electronically.

    A form allowing access to any MPEC is at the bottom of this page.


    Read MPEC 2016-F90 Read MPEC 2016-G02


    M.P.E.C. 2016-G01                                Issued 2016 Apr. 1, 00:18 UT
    
         The Minor Planet Electronic Circulars contain information on unusual
             minor planets and routine data on comets.  They are published
        on behalf of Division F of the International Astronomical Union by the
              Minor Planet Center, Smithsonian Astrophysical Observatory,
                              Cambridge, MA 02138, U.S.A.
    
                 Prepared using the Tamkin Foundation Computer Network
    
                                  MPC@CFA.HARVARD.EDU
                URL https://www.minorplanetcenter.net/    ISSN 1523-6714
    
                                       2016 FC13
    
    Observations:
         K16F13C  C2016 03 29.81094 13 36 34.14 +31 55 21.6          18.2  qEG001L51
         K16F13C  C2016 03 29.83573 13 35 34.69 +31 45 33.1          18.2  qEG001L51
         K16F13C  C2016 03 29.85575 13 34 46.52 +31 37 33.6          18.2  qEG001L51
         K16F13C  C2016 03 31.30659 12 27 19.99 +17 29 04.4                qEG001703
         K16F13C  C2016 03 31.31227 12 27 01.38 +17 24 35.3                qEG001703
         K16F13C  C2016 03 31.31795 12 26 42.86 +17 20 06.6                qEG001703
         K16F13C  C2016 03 31.32362 12 26 24.23 +17 15 38.0                qEG001703
         K16F13C* C2016 03 31.35199 12 24 51.07 +16 53 02.4          15.7 VqEG001703
         K16F13C  C2016 03 31.35226 12 24 50.20 +16 52 49.7          15.7 VqEG001703
         K16F13C  C2016 03 31.35253 12 24 49.31 +16 52 36.7          15.7 VqEG001703
         K16F13C  C2016 03 31.35280 12 24 48.42 +16 52 23.8          15.7 VqEG001703
         K16F13C  C2016 03 31.39815 12 22 19.12 +16 15 44.9          15.7 VqEG001I52
         K16F13C  C2016 03 31.39833 12 22 18.51 +16 15 35.9          15.8 VqEG001I52
         K16F13C  C2016 03 31.39851 12 22 17.91 +16 15 26.9          15.8 VqEG001I52
         K16F13C  C2016 03 31.39869 12 22 17.30 +16 15 18.0          15.7 VqEG001I52
         K16F13C  C2016 03 31.45333 12 19 17.17 +15 30 18.6          15.6 VqEG001I52
         K16F13C  C2016 03 31.45351 12 19 16.56 +15 30 09.5          15.5 VqEG001I52
         K16F13C  C2016 03 31.45369 12 19 15.96 +15 30 00.3          15.6 VqEG001I52
         K16F13C  C2016 03 31.45388 12 19 15.35 +15 29 51.2          15.6 VqEG001I52
         K16F13C  C2016 03 31.45535 12 19 10.48 +15 28 37.3          15.6 VqEG001I52
         K16F13C  C2016 03 31.45554 12 19 09.89 +15 28 28.2          15.6 VqEG001I52
         K16F13C  C2016 03 31.45572 12 19 09.27 +15 28 19.1          15.5 VqEG001I52
         K16F13C  C2016 03 31.45590 12 19 08.67 +15 28 09.8          15.5 VqEG001I52
         K16F13C KC2016 03 31.74829 12 03 25.11 +11 14 25.6          15.6 V EG001L04
         K16F13C KC2016 03 31.75031 12 03 18.21 +11 12 36.7          15.5 V EG001L04
         K16F13C KC2016 03 31.75365 12 03 06.90 +11 09 36.6          15.6 V EG001L04
         K16F13C KC2016 03 31.75600 12 02 58.89 +11 07 29.6          15.6 V EG001L04
         K16F13C KC2016 03 31.75781 12 02 52.74 +11 05 52.4          15.4 V EG001L04
         K16F13C KC2016 03 31.76794 12 02 18.18 +10 56 45.3          15.4 V EG001L04
         K16F13C KC2016 03 31.77955 12 01 38.52 +10 46 15.7          15.5 V EG001L04
         K16F13C  C2016 03 31.79448 12 00 44.26 +10 33 00.9          15.0 RqEG001D00
         K16F13C  C2016 03 31.79586 12 00 39.51 +10 31 45.9          15.1 RqEG001D00
         K16F13C  C2016 03 31.79775 12 00 32.93 +10 30 02.0          15.0 RqEG001D00
         K16F13C  C2016 03 31.79858 12 00 30.16 +10 29 17.2          15.1 RqEG001D00
         K16F13C KC2016 03 31.79900 12 00 31.83 +10 28 37.2          15.5 V EG001L04
         K16F13C KC2016 03 31.81410011 59 42.59 +10 14 27.2                qEG001J95
         K16F13C KC2016 03 31.81484011 59 40.08 +10 13 46.8                qEG001J95
         K16F13C KC2016 03 31.81564311 59 37.35 +10 13 02.8          15.4 RqEG001J95
         K16F13C KC2016 03 31.82386 11 59 06.27 +10 05 56.5          15.5 V EG001L04
         K16F13C KC2016 03 31.83573 11 58 25.27 +09 55 03.9          15.6 V EG001L04
         K16F13C KC2016 03 31.94923 11 51 55.10 +08 09 07.0          15.6 VqEG001Z99
         K16F13C KC2016 03 31.95126 11 51 48.01 +08 07 12.1          15.7 VqEG001Z99
         K16F13C KC2016 03 31.95329 11 51 40.92 +08 05 17.4          15.6 VqEG001Z99
         K16F13C KC2016 03 31.99984 11 48 55.21 +07 21 40.2          15.9 VtEG001595
         K16F13C KC2016 04 01.00055 11 48 52.70 +07 20 59.4                tEG001595
    
    Observer details:
    595 Farra d'Isonzo.  Observers G. Ierman, E. Pettarin.  Measurer E. Pettarin.
        0.40-m f/4.5 reflector + CCD.
    703 Catalina Sky Survey.  Observers E. J. Christensen, R. L. Seaman.
        Measurers E. J. Christensen, D. C. Fuls, A. R. Gibbs, A. D. Grauer,
        J. A. Johnson, R. A. Kowalski, S. M. Larson, G. J. Leonard, R. G. Matheny,
        R. L. Seaman, F. C. Shelly.  0.68-m Schmidt + CCD.
    D00 ISON-Kislovodsk Observatory.  Observer E. Romas.  Measurer V. Nevski.
        0.4-m f/3 reflector + CCD.
    I52 Steward Observatory, Mt. Lemmon Station.  Observer R. G. Matheny.
        Measurers E. J. Christensen, D. C. Fuls, A. R. Gibbs, A. D. Grauer,
        J. A. Johnson, R. A. Kowalski, S. M. Larson, G. J. Leonard, R. G. Matheny,
        R. L. Seaman, F. C. Shelly.  1.0-m reflector + CCD.
    J95 Great Shefford.  Observer P. Birtwhistle.  0.40-m f/6.0 Schmidt-Cassegrain
        + CCD.
    L04 ROASTERR-1 Observatory, Cluj-Napoca.  Observer L. Hudin.  0.3-m f/5.0
        reflector + CCD.
    L51 MARGO, Nauchnij.  Observer G. Borisov.  0.3-m f/1.5 astrograph + CCD.
    Z99 Clixby Observatory, Cleethorpes.  Observer A. Mickleburgh.  0.36-m f/8
        Schmidt-Cassegrain + CCD.
    
    Orbital elements:
    2016 FC13                                           PHA, Earth MOID = 0.0306 AU
    Epoch 2016 Jan. 13.0 TT = JDT 2457400.5                 MPC
    M 278.63862              (2000.0)            P               Q
    n   0.69872346     Peri.  219.92312     -0.65872056     +0.74163754
    a   1.2577640      Node    11.14843     -0.40502043     -0.20757996
    e   0.2142413      Incl.   40.95373     -0.63407072     -0.63787485
    P   1.41           H   21.9           G   0.15           U   7
    Residuals in seconds of arc
    160329 L51  0.5-  0.4+    160331 I52  0.3+  0.4+    160331 D00  0.1+  0.3+
    160329 L51  1.0-  0.7-    160331 I52  0.1+  0.3+    160331 D00  0.3+  0.6+
    160329 L51  1.5+  0.6+    160331 I52  0.0   0.1+    160331 D00  0.6-  0.1-
    160331 703  0.3-  0.1-    160331 I52  0.2+  0.5+    160331 D00  0.8+  0.4+
    160331 703  0.6-  0.9-    160331 I52  0.1-  0.1-    160331 L04  0.4-  0.2-
    160331 703  0.6+  0.7-    160331 I52  0.4+  0.3+    160331 J95  0.0   0.0
    160331 703  0.1-  0.3-    160331 I52  0.0   0.2+    160331 J95  0.3+  0.1+
    160331 703  0.2-  0.4-    160331 I52  0.1-  0.1-    160331 J95  0.5+  0.0
    160331 703  0.0   0.1-    160331 L04  0.3-  0.1+    160331 L04  0.1-  0.2-
    160331 703  0.0   0.1-    160331 L04  0.8-  0.1-    160331 L04  0.2-  0.0
    160331 703  0.0   0.0     160331 L04  0.1-  0.2-    160331 Z99  0.3-  0.2-
    160331 I52  0.3+  0.4+    160331 L04  0.3-  0.5-    160331 Z99  0.4-  0.4-
    160331 I52  0.1+  0.2+    160331 L04  0.1-  0.0     160331 Z99  0.6-  0.5-
    160331 I52  0.0   0.0     160331 L04  0.4-  0.3+    160331 595  0.1-  0.4+
    160331 I52  0.2-  0.1-    160331 L04  0.2-  0.1-    160401 595  0.4-  0.1+
    
    Ephemeris:
    2016 FC13                a,e,i = 1.26, 0.21, 41                  q = 0.9883
    Date    TT    R. A. (2000) Decl.     Delta      r     Elong.  Phase     V
    2016 03 02    16 31 54.2 +47 30 22   0.3777  1.1129    98.7    61.7    22.2
    ...
    2016 03 17    16 15 03.4 +47 03 22   0.1982  1.0685   106.5    63.2    20.8
    ...
    2016 03 25    15 25 27.5 +44 31 54   0.1006  1.0476   117.5    57.6    19.1
    ...
    2016 03 31    12 43 13.9 +21 17 51   0.03806 1.0335   154.5    24.6    16.0
    2016 04 01    11 49 02.7 +07 25 01   0.03356 1.0313   162.1    17.3    15.5
    2016 04 02    10 51 03.7 -08 50 41   0.03356 1.0291   151.3    27.8    15.8
    ...
    2016 04 08    07 23 39.2 -44 28 11   0.08854 1.0172    97.9    77.2    19.4
    ...
    2016 04 16    06 19 59.6 -47 51 46   0.1846  1.0043    84.9    84.5    21.2
    ...
    2016 05 01    05 48 20.8 -48 35 35   0.3587  0.9900    76.9    82.4    22.5
    
                           (Last issue was M.P.E.C. 2016-F90)
    
    A. U. Tomatic                (C) Copyright 2016 MPC           M.P.E.C. 2016-G01
    

    Read MPEC 2016-F90 Read MPEC 2016-G02


    MPEC number:

    Enter an MPEC number in one of the following forms:

    • 1997-B01 (the full form)
    • J97B01 (the packed version of the full form)
    • B01 (the abbreviated form)